Weather History for Nantucket, MA

Change the Weather History Date:

Wednesday, October 5, 2011

  Actual Average Record
Temperature  
Mean Temperature 59 °F -  
Max Temperature 64 °F 65 °F 75 °F (1971)
Min Temperature 53 °F 49 °F 36 °F (1965)
Degree Days  
Heating Degree Days 6    
Growing Degree Days 9 (Base 50)    
Moisture  
Dew Point 49 °F    
Average Humidity 72    
Maximum Humidity 94    
Minimum Humidity 43    
Precipitation  
Precipitation 0.02 in - - ()
Sea Level Pressure  
Sea Level Pressure 29.94 in    
Wind  
Wind Speed 21 mph (NNW)    
Max Wind Speed 28 mph    
Max Gust Speed 40 mph    
Visibility 10 miles    
Events Rain    
Averages and records for this station are not official NWS values.
T = Trace of Precipitation, MM = Missing Value Source: NWS Daily Summary

Daily Weather History Graph

Daily Weather History Graph

Search for Another Location

Airport:

Trip Planner

Search our weather history database for the weather conditions in past years. The results will help you decide how hot, cold, wet, or windy it might be!

Date:

Astronomy

Oct. 05, 2011 Rise Set
Actual Time 6:40 AM EDT 6:15 PM EDT
Civil Twilight 6:13 AM EDT 6:43 PM EDT
Nautical Twilight 5:41 AM EDT 7:15 PM EDT
Astronomical Twilight 5:09 AM EDT 7:47 PM EDT
Moon 2:57 PM EDT (10/5) 12:20 AM EDT (10/5)
Length of Visible Light 12h 30m
Length of Day
11h 35m
Waxing Gibbous, 66% of the Moon is Illuminated
Oct 5
Waxing Gibbous
Oct 11
Full
Oct 19
Last Quarter
Oct 26
New
Nov 2
First Quarter

Hourly Weather History & Observations

Time (EDT) Temp. Dew Point Humidity Pressure Visibility Wind Dir Wind Speed Gust Speed Precip Events Conditions
12:53 AM 57.9 °F 55.0 °F 90% 29.81 in 7.0 mi NNW 27.6 mph 40.3 mph 0.00 in   Overcast
1:02 AM 57.2 °F 55.4 °F 94% 29.81 in 10.0 mi NNW 20.7 mph 34.5 mph N/A   Overcast
1:48 AM 57.2 °F 53.6 °F 88% 29.82 in 10.0 mi NNW 23.0 mph 32.2 mph 0.00 in   Overcast
1:53 AM 57.9 °F 54.0 °F 87% 29.82 in 10.0 mi NNW 23.0 mph 32.2 mph 0.00 in   Overcast
1:55 AM 57.2 °F 53.6 °F 88% 29.82 in 10.0 mi NNW 21.9 mph 32.2 mph N/A   Overcast
2:02 AM 57.2 °F 53.6 °F 88% 29.82 in 8.0 mi NNW 21.9 mph 28.8 mph 0.01 in Rain Rain
2:53 AM 57.0 °F 53.1 °F 87% 29.82 in 10.0 mi North 27.6 mph 38.0 mph 0.01 in   Overcast
3:53 AM 57.9 °F 52.0 °F 81% 29.84 in 10.0 mi North 23.0 mph 33.4 mph N/A   Overcast
4:53 AM 57.9 °F 52.0 °F 81% 29.86 in 10.0 mi North 23.0 mph 33.4 mph N/A   Overcast
5:33 AM 57.2 °F 50.0 °F 77% 29.87 in 10.0 mi North 23.0 mph 32.2 mph N/A   Overcast
5:53 AM 57.0 °F 48.9 °F 74% 29.88 in 10.0 mi NNW 23.0 mph 32.2 mph N/A   Mostly Cloudy
6:46 AM 57.2 °F 51.8 °F 82% 29.89 in 10.0 mi NNW 18.4 mph 26.5 mph N/A   Overcast
6:53 AM 57.9 °F 51.1 °F 78% 29.89 in 10.0 mi NNW 16.1 mph 26.5 mph N/A   Overcast
7:49 AM 57.2 °F 53.6 °F 88% 29.90 in 6.0 mi NW 12.7 mph - 0.01 in Rain Light Rain
7:53 AM 57.0 °F 54.0 °F 89% 29.91 in 7.0 mi NW 16.1 mph 24.2 mph 0.01 in Rain Light Rain
8:11 AM 57.2 °F 53.6 °F 88% 29.91 in 10.0 mi NW 15.0 mph - 0.00 in   Overcast
8:53 AM 59.0 °F 53.6 °F 82% 29.92 in 10.0 mi NW 20.7 mph 24.2 mph N/A   Overcast
9:53 AM 61.0 °F 52.0 °F 72% 29.93 in 10.0 mi NNW 16.1 mph 25.3 mph N/A   Mostly Cloudy
10:40 AM 60.8 °F 51.8 °F 72% 29.94 in 10.0 mi NNW 16.1 mph 24.2 mph N/A   Mostly Cloudy
10:53 AM 61.0 °F 51.1 °F 70% 29.94 in 10.0 mi NNW 15.0 mph 23.0 mph N/A   Mostly Cloudy
11:01 AM 62.6 °F 51.8 °F 68% 29.93 in 10.0 mi NW 17.3 mph - N/A   Scattered Clouds
11:26 AM 62.6 °F 51.8 °F 68% 29.93 in 10.0 mi NNW 15.0 mph - N/A   Mostly Cloudy
11:36 AM 62.6 °F 51.8 °F 68% 29.94 in 10.0 mi NW 16.1 mph 24.2 mph N/A   Scattered Clouds
11:45 AM 62.6 °F 51.8 °F 68% 29.94 in 10.0 mi NW 20.7 mph 26.5 mph N/A   Mostly Cloudy
11:53 AM 62.1 °F 51.1 °F 67% 29.94 in 10.0 mi NNW 16.1 mph 25.3 mph N/A   Mostly Cloudy
12:20 PM 60.8 °F 48.2 °F 63% 29.94 in 10.0 mi NNW 17.3 mph 24.2 mph N/A   Mostly Cloudy
12:53 PM 63.0 °F 48.9 °F 60% 29.94 in 10.0 mi North 17.3 mph 24.2 mph N/A   Scattered Clouds
1:53 PM 64.0 °F 48.9 °F 58% 29.94 in 10.0 mi NNW 17.3 mph 26.5 mph N/A   Clear
2:53 PM 64.0 °F 48.9 °F 58% 29.94 in 10.0 mi North 19.6 mph 23.0 mph N/A   Partly Cloudy
3:53 PM 60.8 °F 48.2 °F 63% 29.96 in 10.0 mi NNW 12.7 mph - N/A Rain Light Rain
4:53 PM 63.0 °F 44.1 °F 50% 29.97 in 10.0 mi NNW 18.4 mph 24.2 mph 0.00 in   Partly Cloudy
5:53 PM 62.1 °F 44.1 °F 52% 30.00 in 10.0 mi NNW 17.3 mph 27.6 mph N/A   Mostly Cloudy
6:53 PM 55.4 °F 46.4 °F 72% 30.05 in 10.0 mi North 18.4 mph - N/A   Partly Cloudy
7:53 PM 55.0 °F 42.1 °F 62% 30.09 in 10.0 mi North 23.0 mph 29.9 mph N/A   Partly Cloudy
8:53 PM 55.0 °F 39.9 °F 57% 30.12 in 10.0 mi North 25.3 mph 33.4 mph N/A   Partly Cloudy
9:53 PM 55.0 °F 36.0 °F 49% 30.15 in 10.0 mi North 24.2 mph 35.7 mph N/A   Scattered Clouds
10:53 PM 54.0 °F 35.1 °F 49% 30.18 in 10.0 mi North 23.0 mph 31.1 mph N/A   Clear
11:53 PM 53.1 °F 30.9 °F 43% 30.19 in 10.0 mi North 20.7 mph 26.5 mph N/A   Partly Cloudy